Temperature
5 5 5 5 5 5 5 5 5 5 5 5 5 4 4 4 4 4 4 4 4 4 4 4 5 4 4 4 4 4 4 4 4 4 4 4 4 4 4 4 4 4 4
4 4 4 5 5 5 5 4 4 4 4 4 4 4 4 4 4 4 4 4 4 4 4 4 4 4 4 4 4 4 4 4 4 4 4 3 3 3 3 3 3 3 3
3 3 4 4 4 4 4 4 4 4 3 3 3 3 3 3 3 3 3 3 3 3 3 3 3 3 3 3 3 3 3 3 3 3 3 3 3 3 3 3 3 3 3
3 3 3 3 3 3 3 3 3 3 3 3 3 3 3 3 2 2 2 3 3 3 3 3 3 3 3 3 3 3 3 3 2 2 3 2 2 2 2 2 3 3 2
2 2 2 3 2 2 3 3 3 3 2 2 2 2 2 2 2 2 2 2 2 2 2 2 2 2 2 2 2 2 2 2 2 2 2 2 2 2 2 2 2 2 2
1 2 2 2 2 2 2 2 2 2 2 2 2 2 2 2 1 1 1 1 2 2 2 2 2 2 2 2 2 2 1 1 1 1 1 1 1 1 1 1 1 1 1
1 1 1 1 1 1 1 1 1 1 1 1 1 1 1 1 1 1 1 1 1 1 1 1 1 1 1 1 1 1 1 1 1 1 1 1 0 0 1 1 1 1 1
0 0 0 0 1 1 1 1 1 1 1 1 1 0 0 1 1 1 0 0 0 1 1 1 1 1 1 1 1 1 1 1 0 0 0 0 0 0 0 0 0 0 0
-1 -0 -0 0 0 0 0 0 0 0 0 0 0 -0 -0 -0 -0 -0 -0 -0 -0 -0 0 0 0 0 0 0 0 0 0 0 0 -0 -0 -0 -0 -0 -0 -0 -0 -0 -0
-1 -1 -1 -1 -1 -1 -1 -1 -1 -1 -1 -1 -1 -1 -1 -1 -1 -1 -1 -1 -1 -0 -0 -0 -0 -0 -0 -0 -0 -0 -0 -0 -0 -0 -0 -0 -0 -0 -0 -1 -1 -1 -1
-2 -2 -1 -1 -1 -1 -1 -1 -1 -1 -1 -1 -1 -1 -1 -1 -1 -1 -1 -1 -1 -1 -1 -1 -1 -1 -1 -1 -1 -1 -1 -1 -1 -1 -1 -1 -1 -1 -1 -1 -1 -1 -1
-2 -2 -2 -2 -2 -2 -2 -2 -2 -2 -2 -2 -2 -2 -2 -2 -2 -2 -2 -2 -2 -1 -1 -1 -1 -1 -1 -1 -1 -1 -1 -1 -1 -1 -1 -1 -1 -1 -1 -1 -1 -1 -1
-2 -2 -2 -2 -2 -2 -2 -2 -2 -2 -2 -2 -2 -2 -2 -2 -2 -2 -2 -2 -2 -2 -2 -2 -2 -2 -2 -2 -2 -2 -2 -2 -2 -2 -2 -2 -2 -2 -2 -2 -2 -2 -2
-3 -3 -3 -3 -3 -3 -2 -3 -3 -3 -3 -3 -3 -3 -3 -3 -2 -2 -2 -2 -2 -2 -2 -2 -2 -2 -2 -2 -2 -2 -2 -2 -3 -3 -2 -2 -2 -2 -2 -2 -2 -2 -2
-3 -3 -3 -3 -3 -3 -3 -3 -3 -3 -3 -3 -3 -3 -3 -3 -3 -3 -3 -3 -3 -3 -3 -3 -3 -3 -3 -3 -3 -3 -3 -3 -3 -3 -3 -3 -3 -3 -3 -3 -3 -3 -3
-3 -3 -4 -4 -4 -4 -4 -3 -3 -4 -4 -4 -4 -4 -4 -3 -3 -3 -3 -3 -3 -3 -3 -3 -3 -3 -3 -3 -3 -3 -3 -3 -3 -3 -3 -3 -3 -3 -3 -3 -3 -3 -3
-4 -4 -4 -4 -4 -4 -4 -4 -4 -4 -4 -4 -4 -4 -4 -4 -3 -3 -3 -3 -3 -3 -3 -3 -3 -4 -4 -4 -4 -4 -4 -4 -4 -4 -4 -4 -4 -4 -4 -4 -4 -4 -4
-4 -4 -4 -4 -4 -4 -4 -4 -4 -4 -4 -4 -4 -4 -4 -4 -4 -4 -4 -4 -4 -4 -4 -4 -4 -4 -4 -4 -4 -4 -4 -4 -4 -4 -4 -4 -4 -4 -4 -5 -4 -4 -4
-5 -5 -5 -5 -5 -5 -5 -5 -5 -5 -5 -5 -5 -5 -4 -4 -4 -4 -4 -4 -4 -4 -4 -4 -4 -4 -4 -4 -4 -4 -4 -4 -5 -5 -5 -5 -5 -5 -5 -5 -5 -5 -5
-5 -5 -5 -5 -5 -5 -5 -5 -5 -5 -5 -5 -5 -5 -5 -5 -5 -4 -4 -4 -5 -5 -5 -5 -4 -4 -5 -5 -5 -5 -5 -5 -5 -5 -5 -5 -5 -5 -5 -5 -5 -5 -5
-5 -6 -6 -6 -6 -5 -5 -5 -6 -6 -6 -6 -6 -6 -5 -5 -5 -5 -5 -5 -5 -5 -5 -5 -5 -5 -5 -5 -5 -5 -5 -5 -5 -5 -5 -5 -5 -6 -6 -6 -6 -6 -6
-6 -6 -6 -6 -6 -6 -6 -6 -6 -6 -6 -6 -6 -6 -6 -6 -6 -6 -5 -5 -5 -5 -5 -5 -5 -5 -5 -5 -5 -5 -6 -6 -6 -6 -6 -6 -6 -6 -6 -6 -6 -6 -6
-6 -6 -6 -6 -6 -6 -6 -6 -6 -6 -6 -6 -6 -6 -6 -6 -6 -6 -6 -6 -6 -6 -6 -6 -6 -6 -6 -6 -6 -6 -6 -6 -6 -6 -6 -6 -6 -6 -6 -6 -6 -6 -6
-7 -7 -6 -6 -7 -7 -7 -7 -7 -7 -7 -7 -7 -7 -7 -6 -6 -6 -6 -6 -6 -6 -6 -6 -6 -6 -6 -6 -6 -6 -6 -6 -6 -6 -6 -6 -6 -6 -6 -6 -6 -6 -6
-7 -7 -7 -7 -7 -7 -7 -7 -7 -7 -7 -7 -7 -7 -7 -7 -7 -7 -7 -7 -7 -6 -6 -6 -6 -6 -6 -6 -6 -6 -6 -6 -6 -7 -7 -7 -7 -7 -7 -7 -7 -7 -7
-7 -7 -7 -7 -7 -7 -7 -7 -7 -7 -7 -7 -7 -7 -7 -7 -7 -7 -7 -7 -7 -7 -7 -7 -6 -6 -6 -6 -6 -6 -6 -7 -7 -7 -7 -7 -7 -7 -7 -7 -7 -7 -7
Wind_Speed
3 3 2 2 2 3 3 3 3 2 2 3 3 3 3 3 3 3 3 3 3 2 2 3 2 2 1 1 1 1 1 2 3 3 2 2 2 2 3 4 4 4 5
3 2 2 1 1 2 2 3 3 3 2 3 3 3 3 3 3 3 3 3 4 4 3 3 3 2 2 2 2 2 2 2 3 4 3 2 2 3 3 3 3 4 4
2 1 1 1 1 2 2 2 3 3 3 2 3 3 3 3 3 3 3 3 3 3 3 3 3 3 3 2 2 2 2 2 2 2 3 2 2 2 2 2 3 3 4
2 1 1 2 2 2 2 1 2 3 3 2 2 3 2 2 2 3 3 3 2 2 2 2 3 3 3 3 2 3 2 2 1 2 2 2 2 1 1 2 3 2 3
1 1 1 1 1 2 2 2 2 2 2 2 2 2 2 2 3 3 3 3 2 2 2 2 2 3 3 3 2 3 3 2 2 2 2 2 2 2 2 2 3 4 3
1 1 1 1 1 1 2 2 2 2 2 2 2 2 1 2 3 4 3 2 2 2 2 2 2 2 2 2 2 3 3 3 3 3 2 3 3 3 2 2 2 3 3
2 2 1 1 1 1 1 1 1 1 2 2 2 1 1 2 3 4 4 2 2 2 2 2 2 2 2 2 2 1 1 2 3 3 3 4 4 4 3 3 3 3 4
3 2 1 0 0 1 1 1 1 1 1 1 1 1 1 2 3 4 3 1 2 2 2 3 2 3 3 2 1 1 1 2 2 2 3 4 3 3 3 3 4 4 3
3 3 2 1 1 1 1 1 1 1 1 1 1 2 2 2 3 3 3 1 1 2 2 2 3 3 3 2 2 2 2 2 2 2 3 3 3 3 2 1 2 2 3
3 3 3 1 1 1 1 1 1 1 1 1 1 1 2 3 4 4 3 2 2 2 1 2 3 3 3 2 2 2 3 3 2 2 2 3 2 2 2 1 2 2 2
3 3 3 2 2 2 1 1 1 1 1 1 1 1 2 3 4 4 3 2 3 2 2 2 2 3 3 2 2 2 3 2 1 1 2 2 1 2 2 2 2 2 3
2 3 3 3 2 1 1 1 1 1 1 1 1 1 1 2 3 3 3 4 3 3 2 2 2 3 3 3 2 2 2 1 0 0 1 1 2 2 2 2 3 3 3
2 3 3 2 2 1 1 1 1 1 1 1 1 2 2 2 2 3 3 4 4 2 2 3 3 3 2 2 2 1 0 0 0 1 2 2 2 2 2 2 2 2 3
2 3 2 2 2 1 1 1 2 2 2 2 2 2 2 2 2 2 2 2 3 3 2 2 2 2 1 1 0 0 0 1 1 1 2 2 2 1 1 1 2 2 2
2 2 2 2 2 2 2 2 2 3 4 3 3 3 3 3 4 4 3 2 2 3 2 1 1 1 1 1 0 0 0 1 1 1 1 2 2 2 2 2 1 2 2
2 2 2 2 2 1 2 2 2 3 4 5 5 5 4 5 5 5 4 4 4 4 2 2 2 2 2 2 2 1 1 1 1 1 1 1 2 2 2 2 2 1 2
3 3 2 2 2 2 2 2 2 2 2 3 4 5 5 5 5 4 3 2 3 3 2 2 2 3 3 2 2 2 2 2 2 2 2 2 2 2 2 2 2 2 3
3 3 3 2 2 2 2 2 2 2 2 2 3 4 4 5 4 4 3 2 1 2 2 2 3 3 2 2 2 2 2 2 1 2 2 2 2 2 2 2 2 2 3
2 2 2 2 2 3 3 2 2 2 2 2 2 3 3 4 3 3 2 1 2 2 2 2 2 2 2 2 2 2 2 2 2 2 2 2 2 2 2 2 2 4 3
3 3 3 2 2 2 3 3 2 2 2 2 2 2 2 2 1 1 1 1 2 2 2 2 2 2 2 2 2 2 2 3 3 2 2 2 2 2 2 3 3 3 3
2 2 3 2 2 3 3 3 3 3 3 3 3 3 3 2 2 2 2 2 2 2 2 2 2 2 2 2 2 3 3 3 2 2 2 2 2 2 2 2 3 3 3
2 2 2 2 2 3 3 3 3 3 3 3 2 3 4 2 2 2 2 2 2 2 2 2 2 2 3 3 3 3 3 3 3 3 3 2 2 2 2 2 2 2 3
2 2 2 2 2 3 3 2 2 3 3 3 3 3 2 2 2 2 2 2 2 2 2 2 2 2 3 4 4 4 4 4 4 4 3 3 2 2 2 2 3 3 3
2 2 2 2 2 2 2 2 2 2 2 2 2 2 2 2 2 3 2 2 2 2 3 3 3 4 4 4 4 5 5 5 5 5 4 3 3 3 2 2 3 3 3
2 2 2 2 2 2 2 2 2 2 2 2 2 2 2 2 3 3 3 2 3 3 3 4 4 4 5 5 5 5 6 6 6 5 4 4 3 3 3 3 3 3 3
2 2 2 2 2 2 2 2 2 2 2 3 2 3 3 3 3 3 3 3 3 3 4 4 4 5 5 5 6 6 6 6 6 6 4 3 3 3 3 3 3 3 3
Wind_Direction
284 261 251 248 225 184 177 182 187 169 169 173 173 170 164 168 169 168 175 174 178 188 197 191 218 221 222 221 210 217 216 208 247 274 261 263 247 265 292 286 282 277 277
294 274 252 244 203 168 173 179 170 162 166 164 155 158 161 162 167 173 183 183 183 193 204 198 212 220 226 230 218 225 228 223 223 262 279 267 253 256 269 270 286 284 279
305 284 256 233 192 179 181 173 161 154 158 156 148 154 162 166 169 175 183 183 185 196 202 209 212 207 226 238 239 245 245 247 229 240 272 273 263 266 280 284 289 280 286
304 279 233 219 196 183 169 154 150 149 152 156 159 160 164 171 172 171 177 179 178 198 209 218 223 212 215 219 235 245 245 238 227 236 269 280 276 275 266 283 295 290 285
303 294 259 211 163 147 138 137 140 142 146 153 155 149 159 180 189 177 175 178 175 194 224 233 243 229 227 228 233 235 234 236 231 242 261 293 287 292 272 265 279 293 281
317 288 262 136 129 135 139 132 135 139 138 143 148 157 184 223 213 202 192 185 179 194 225 240 251 240 235 251 252 249 243 233 227 236 254 266 275 281 285 278 276 297 291
329 328 338 146 150 160 157 140 152 160 152 159 155 168 212 230 215 208 201 192 196 210 223 237 265 264 249 227 248 272 276 275 245 225 230 248 255 257 260 274 272 264 267
328 325 327 338 197 179 155 174 183 167 177 186 183 194 221 238 216 213 199 190 199 219 226 225 237 260 249 215 220 244 260 270 265 249 230 243 249 246 238 252 262 276 276
323 316 312 288 241 212 194 225 216 185 209 213 201 201 216 239 229 219 197 180 209 239 243 236 238 244 250 226 198 220 264 291 302 275 273 277 284 287 308 334 312 296 286
302 306 312 307 268 243 237 243 253 202 221 230 230 230 227 238 233 221 196 188 218 238 254 256 246 241 254 245 199 211 242 269 288 308 308 302 303 293 286 239 240 264 279
301 311 316 312 282 245 237 244 217 201 201 228 238 255 247 243 235 224 215 202 209 222 237 249 249 251 257 257 241 229 242 258 253 257 286 294 301 285 272 274 246 236 247
306 309 309 310 301 275 199 238 227 183 195 237 237 265 267 251 244 233 236 238 227 216 229 237 239 245 255 259 260 266 264 283 174 294 293 289 284 283 280 287 279 269 258
304 303 305 309 307 274 222 215 222 212 214 237 237 248 269 263 244 243 245 242 232 230 235 235 239 245 244 246 270 276 252 226 203 274 285 285 283 276 288 301 305 306 305
291 296 301 307 313 313 286 236 222 219 225 235 245 256 265 268 252 238 236 241 226 227 230 226 221 206 218 250 332 317 309 240 227 246 269 283 296 302 300 308 316 324 317
279 284 294 299 298 304 296 267 250 241 230 232 240 242 251 263 256 246 241 234 218 213 198 201 193 193 215 225 221 266 285 290 274 270 273 293 304 306 309 319 321 329 313
276 277 274 277 284 286 295 314 294 264 265 261 256 259 267 268 271 258 255 248 231 216 204 205 214 222 225 224 226 241 250 260 273 272 266 271 290 298 304 320 326 306 300
255 262 263 265 264 267 272 279 302 319 296 280 273 270 270 272 269 258 256 246 223 203 206 205 213 218 222 222 225 233 249 254 251 254 261 271 285 291 296 299 302 304 301
261 260 258 254 254 257 259 260 260 269 293 305 301 289 288 285 276 263 250 236 229 217 213 214 215 214 214 221 227 235 243 245 245 253 256 265 265 268 276 283 282 287 295
265 262 261 256 251 252 255 253 255 260 266 281 299 301 296 293 285 273 254 230 221 232 228 226 225 219 219 228 233 232 231 234 240 246 256 260 255 254 264 273 279 289 289
267 269 271 259 252 252 251 245 246 247 254 260 268 278 296 298 285 280 284 255 235 237 234 232 232 229 226 228 230 229 234 236 235 238 249 251 254 255 261 267 276 283 281
263 265 271 266 252 247 245 239 235 235 239 250 262 271 269 262 258 263 257 250 244 243 240 240 238 234 231 228 225 226 231 240 240 239 243 247 251 258 263 265 272 273 278
249 252 252 253 258 255 249 237 231 232 237 247 262 271 269 275 264 263 263 260 252 247 240 236 242 241 230 226 225 226 230 237 238 237 239 244 250 252 255 260 270 277 280
242 254 262 264 265 264 266 245 234 233 239 243 250 258 262 260 257 259 262 266 265 255 246 239 237 245 249 244 236 227 230 233 232 228 235 241 245 244 248 255 262 275 277
241 248 255 264 268 265 260 254 243 240 240 243 247 251 256 258 259 260 261 266 267 263 253 245 241 241 244 251 250 248 247 248 243 235 225 227 233 239 244 254 258 265 267
239 247 252 252 256 259 262 263 260 256 254 254 253 254 257 261 265 267 265 260 257 259 260 256 252 248 246 250 254 260 261 256 251 247 231 217 223 230 237 243 248 262 259
243 249 254 254 250 253 253 256 260 261 260 262 261 260 260 262 265 266 263 259 258 259 260 259 254 253 256 259 262 267 269 264 254 242 227 210 215 229 235 239 239 242 243
Height
1458 1459 1460 1461 1462 1464 1465 1467 1469 1470 1471 1472 1473 1475 1476 1478 1479 1481 1482 1483 1484 1485 1486 1487 1488 1489 1490 1490 1491 1491 1491 1491 1490 1489 1489 1489 1490 1490 1490 1490 1489 1489 1488
1456 1456 1456 1458 1459 1461 1462 1464 1466 1467 1468 1469 1470 1471 1472 1474 1476 1477 1478 1479 1480 1481 1482 1483 1484 1485 1485 1486 1486 1486 1486 1487 1486 1485 1485 1485 1485 1486 1486 1485 1485 1484 1484
1453 1453 1454 1455 1456 1457 1459 1460 1462 1463 1465 1466 1467 1468 1469 1470 1472 1473 1474 1475 1476 1477 1478 1479 1480 1480 1480 1481 1481 1482 1482 1482 1482 1481 1481 1481 1481 1481 1481 1481 1481 1480 1480
1451 1451 1451 1452 1453 1454 1455 1457 1458 1460 1461 1462 1463 1465 1466 1467 1468 1469 1471 1471 1472 1473 1474 1475 1476 1476 1476 1477 1477 1478 1478 1478 1478 1478 1477 1477 1477 1477 1477 1477 1476 1476 1475
1449 1448 1448 1449 1450 1451 1453 1454 1455 1457 1458 1459 1460 1461 1462 1463 1464 1466 1467 1468 1468 1469 1470 1471 1472 1472 1473 1473 1473 1474 1474 1474 1473 1473 1473 1473 1473 1473 1473 1472 1472 1471 1471
1446 1446 1446 1447 1448 1449 1450 1451 1452 1453 1454 1455 1456 1457 1458 1459 1461 1462 1463 1464 1464 1466 1467 1467 1468 1468 1469 1470 1470 1471 1471 1470 1470 1469 1469 1469 1469 1469 1469 1469 1468 1467 1466
1444 1444 1444 1444 1445 1446 1447 1448 1448 1450 1451 1452 1453 1454 1454 1456 1457 1458 1459 1460 1461 1462 1463 1463 1463 1464 1465 1465 1466 1467 1467 1467 1467 1467 1466 1466 1466 1466 1466 1465 1464 1463 1463
1443 1442 1442 1442 1443 1443 1444 1445 1446 1447 1448 1448 1449 1450 1451 1452 1454 1455 1456 1457 1457 1458 1459 1459 1459 1460 1461 1461 1461 1462 1462 1463 1463 1463 1464 1464 1464 1463 1463 1462 1461 1460 1459
1441 1441 1440 1441 1441 1441 1441 1442 1443 1444 1445 1445 1446 1447 1448 1449 1450 1451 1452 1453 1454 1454 1455 1456 1456 1456 1457 1457 1458 1458 1458 1459 1460 1460 1460 1460 1460 1460 1459 1458 1457 1456 1454
1439 1439 1439 1439 1439 1439 1439 1440 1440 1441 1441 1442 1443 1444 1445 1445 1447 1448 1449 1449 1450 1450 1451 1452 1453 1453 1454 1454 1454 1454 1454 1455 1455 1456 1456 1456 1456 1456 1455 1455 1454 1452 1451
1438 1437 1437 1437 1437 1437 1437 1437 1438 1438 1439 1439 1440 1441 1442 1442 1443 1444 1445 1446 1446 1447 1447 1448 1449 1450 1450 1451 1451 1451 1451 1452 1452 1452 1452 1452 1452 1452 1451 1451 1450 1449 1448
1436 1435 1435 1434 1434 1434 1434 1435 1435 1436 1436 1436 1437 1437 1438 1439 1440 1440 1442 1443 1443 1443 1444 1444 1445 1446 1447 1447 1448 1448 1448 1449 1448 1448 1448 1448 1448 1448 1447 1446 1446 1445 1444
1434 1433 1432 1432 1432 1432 1432 1432 1432 1433 1433 1433 1433 1434 1434 1435 1436 1437 1438 1439 1440 1440 1440 1441 1442 1442 1443 1443 1444 1444 1445 1445 1445 1444 1444 1444 1445 1444 1444 1443 1442 1441 1441
1431 1431 1430 1429 1429 1429 1429 1430 1430 1430 1430 1430 1430 1431 1431 1432 1432 1433 1434 1435 1436 1436 1437 1438 1438 1439 1440 1440 1440 1441 1441 1441 1441 1442 1442 1441 1441 1441 1440 1439 1438 1438 1437
1429 1428 1427 1427 1426 1426 1427 1427 1427 1427 1428 1428 1428 1428 1428 1428 1429 1430 1430 1431 1431 1432 1433 1434 1435 1435 1436 1436 1436 1437 1438 1438 1438 1438 1438 1438 1438 1437 1437 1436 1436 1435 1433
1426 1425 1425 1424 1424 1424 1424 1424 1424 1425 1425 1425 1426 1426 1426 1426 1426 1426 1427 1427 1428 1429 1430 1430 1430 1431 1432 1432 1433 1433 1434 1434 1435 1435 1435 1435 1434 1434 1434 1433 1433 1432 1430
1423 1422 1422 1422 1421 1421 1421 1421 1421 1421 1422 1422 1422 1422 1422 1422 1423 1423 1423 1423 1424 1425 1426 1426 1427 1427 1428 1429 1429 1430 1430 1431 1432 1432 1432 1431 1431 1431 1430 1429 1429 1428 1427
1420 1420 1419 1419 1418 1418 1418 1418 1418 1418 1418 1418 1419 1419 1419 1419 1419 1419 1420 1420 1420 1421 1422 1422 1423 1424 1425 1425 1426 1426 1427 1428 1428 1428 1428 1428 1428 1427 1426 1426 1425 1425 1424
1417 1416 1416 1415 1415 1415 1415 1415 1415 1415 1415 1415 1415 1415 1415 1415 1416 1416 1416 1417 1417 1418 1418 1419 1420 1420 1421 1422 1422 1423 1423 1424 1424 1424 1424 1424 1424 1424 1423 1423 1422 1422 1422
1413 1413 1413 1412 1412 1411 1411 1412 1412 1412 1412 1412 1412 1412 1412 1412 1412 1413 1413 1414 1414 1415 1415 1416 1416 1417 1417 1418 1419 1419 1420 1420 1420 1421 1421 1421 1421 1421 1420 1420 1419 1419 1419
1410 1410 1409 1409 1408 1408 1408 1408 1408 1408 1408 1409 1409 1409 1409 1409 1409 1410 1410 1411 1411 1411 1412 1412 1413 1413 1414 1414 1415 1415 1416 1416 1417 1417 1417 1418 1417 1417 1417 1417 1417 1416 1416
1407 1406 1406 1405 1405 1405 1405 1404 1405 1405 1405 1406 1406 1406 1406 1407 1407 1407 1407 1408 1408 1408 1409 1409 1409 1410 1410 1411 1411 1412 1412 1413 1413 1414 1414 1414 1414 1414 1414 1414 1414 1414 1413
1404 1403 1403 1402 1402 1402 1401 1401 1402 1402 1402 1402 1403 1403 1403 1403 1403 1404 1404 1404 1405 1405 1405 1406 1406 1406 1407 1407 1408 1408 1408 1409 1410 1411 1411 1411 1411 1411 1411 1411 1411 1411 1411
1400 1400 1400 1399 1399 1399 1398 1398 1399 1399 1399 1399 1399 1400 1400 1400 1400 1401 1401 1401 1401 1401 1402 1402 1402 1403 1403 1404 1404 1405 1405 1406 1406 1407 1407 1407 1408 1408 1408 1408 1408 1408 1408
1397 1397 1397 1397 1396 1396 1396 1396 1396 1396 1396 1396 1396 1396 1397 1397 1397 1397 1397 1398 1398 1398 1398 1399 1399 1399 1400 1400 1401 1401 1402 1402 1403 1403 1404 1404 1404 1404 1405 1404 1404 1404 1404
1395 1394 1394 1394 1394 1394 1393 1393 1393 1393 1393 1393 1393 1393 1394 1394 1394 1394 1394 1394 1394 1395 1395 1395 1395 1396 1396 1397 1397 1398 1398 1399 1399 1400 1400 1400 1401 1401 1401 1401 1401 1401 1401